Change the Weather History Date:

Monday, October 14, 2013

  Actual Average (KHTL) Record (KHTL)
Temperature  
Mean Temperature 42 °F 46 °F  
Max Temperature 58 °F 57 °F 80 °F (1920)
Min Temperature 27 °F 36 °F 19 °F (1937)
Degree Days  
Heating Degree Days 22 19  
Month to date heating degree days 229  
Since 1 July heating degree days 610  
Cooling Degree Days 0 0  
Month to date cooling degree days 0  
Year to date cooling degree days 285  
Moisture  
Dew Point 35 °F    
Average Humidity 76    
Maximum Humidity 100    
Minimum Humidity 35    
Precipitation  
Precipitation 0.00 in 0.08 in 2.52 in (1941)
Month to date precipitation 1.21  
Year to date precipitation 23.43  
Snow  
Snow 0.00 in 0.00 in 3.50 in (1980)
Month to date snowfall 0.1  
Since 1 July snowfall 0.1  
Snow Depth -    
Sea Level Pressure  
Sea Level Pressure 30.38 in    
Wind  
Wind Speed 2 mph (ENE)    
Max Wind Speed 9 mph    
Max Gust Speed -    
Visibility 8 miles    
Events Fog    
T = Trace of Precipitation, MM = Missing Value Source: NWS Daily Summary

Daily Weather History Graph

Daily Weather History Graph

Search for Another Location

Airport or City:

Trip Planner

Search our weather history database for the weather conditions in past years. The results will help you decide how hot, cold, wet, or windy it might be!

Date:

Astronomy

Oct. 14, 2013 Rise Set
Actual Time 7:53 AM EDT 6:55 PM EDT
Civil Twilight 7:23 AM EDT 7:25 PM EDT
Nautical Twilight 6:50 AM EDT 7:58 PM EDT
Astronomical Twilight 6:16 AM EDT 8:32 PM EDT
Moon 4:33 PM EDT (10/14) 2:58 AM EDT (10/14)
Length of Visible Light 12h 01m
Length of Day
11h 02m
Waxing Gibbous, 79% of the Moon is Illuminated
Oct 14
Waxing Gibbous
Oct 18
Full
Oct 26
Last Quarter
Nov 3
New
Nov 10
First Quarter

Hourly Weather History & Observations

Time (EDT) Temp. Windchill Dew Point Humidity Pressure Visibility Wind Dir Wind Speed Gust Speed Precip Events Conditions
12:15 AM 48.4 °F - 44.6 °F 87% 30.39 in 10.0 mi NNW 4.6 mph - N/A   Overcast
12:35 AM 48.4 °F - 45.1 °F 89% 30.40 in 10.0 mi NNW 3.5 mph - N/A   Overcast
12:54 AM 48.4 °F - 44.8 °F 87% 30.40 in 10.0 mi NNW 3.5 mph - N/A   Mostly Cloudy
1:15 AM 41.5 °F - 40.5 °F 96% 30.40 in 10.0 mi Calm Calm - N/A   Clear
1:34 AM 41.0 °F - 40.5 °F 98% 30.40 in 10.0 mi Calm Calm - N/A   Clear
1:55 AM 39.7 °F - 39.7 °F 100% 30.41 in 10.0 mi Calm Calm - N/A   Clear
2:15 AM 38.1 °F - 38.1 °F 100% 30.41 in 1.0 mi Calm Calm - N/A   Mist
2:35 AM 38.1 °F - 38.1 °F 100% 30.42 in 3.0 mi Calm Calm - N/A   Clear
2:54 AM 35.8 °F - 35.8 °F 100% 30.42 in 5.0 mi Calm Calm - N/A   Clear
3:15 AM 33.8 °F - 33.8 °F 100% 30.42 in 10.0 mi Calm Calm - N/A   Clear
3:35 AM 33.6 °F - 33.6 °F 100% 30.42 in 10.0 mi Calm Calm - N/A   Clear
3:54 AM 33.3 °F - 33.3 °F 100% 30.43 in 1.8 mi Calm Calm - N/A   Mist
4:15 AM 33.3 °F - 33.1 °F 99% 30.43 in 10.0 mi Calm Calm - N/A   Clear
4:35 AM 33.3 °F - 33.1 °F 99% 30.43 in 2.0 mi Calm Calm - N/A   Clear
4:54 AM 33.3 °F - 33.1 °F 99% 30.43 in 2.5 mi Calm Calm - N/A   Clear
5:15 AM 31.5 °F - 31.5 °F 100% 30.43 in 0.5 mi Calm Calm - N/A Fog Light Freezing Fog
5:34 AM 31.6 °F - 31.6 °F 100% 30.43 in 0.8 mi Calm Calm - N/A   Mist
5:55 AM 30.7 °F - 30.7 °F 100% 30.44 in 0.8 mi Calm Calm - N/A   Mist
6:15 AM 31.6 °F - 31.6 °F 100% 30.44 in 0.8 mi Calm Calm - N/A   Mist
6:34 AM 31.1 °F - 31.1 °F 100% 30.44 in 10.0 mi Calm Calm - N/A   Clear
6:55 AM 29.3 °F - 29.3 °F 100% 30.44 in 10.0 mi Calm Calm - N/A   Clear
7:14 AM 28.4 °F - 28.4 °F 100% 30.44 in 1.0 mi Calm Calm - N/A   Mist
7:35 AM 29.5 °F - 29.5 °F 100% 30.44 in 10.0 mi Calm Calm - N/A   Clear
7:54 AM 28.4 °F - 28.4 °F 100% 30.44 in 10.0 mi Calm Calm - N/A   Clear
8:15 AM 27.9 °F - 27.7 °F 99% 30.44 in 1.0 mi Calm Calm - N/A   Mist
8:35 AM 29.3 °F - 29.3 °F 100% 30.44 in 10.0 mi Calm Calm - N/A   Clear
8:54 AM 33.1 °F - 33.1 °F 100% 30.44 in 10.0 mi Calm Calm - N/A   Clear
9:15 AM 35.4 °F - 35.4 °F 100% 30.44 in 10.0 mi Calm Calm - N/A   Clear
9:34 AM 38.3 °F - 38.3 °F 100% 30.44 in 10.0 mi Calm Calm - N/A   Clear
9:55 AM 39.6 °F - 38.1 °F 95% 30.44 in 10.0 mi Calm Calm - N/A   Clear
10:15 AM 45.3 °F - 40.1 °F 82% 30.45 in 10.0 mi Calm Calm - N/A   Clear
10:34 AM 48.4 °F - 40.5 °F 74% 30.45 in 10.0 mi Calm Calm - N/A   Clear
10:55 AM 49.5 °F - 37.9 °F 65% 30.43 in 10.0 mi East 3.5 mph - N/A   Clear
11:54 AM 53.8 °F - 37.2 °F 54% 30.43 in 10.0 mi ENE 4.6 mph - N/A   Clear
12:15 PM 53.6 °F - 35.2 °F 50% 30.43 in 10.0 mi ENE 5.8 mph - N/A   Clear
12:34 PM 55.2 °F - 35.6 °F 48% 30.41 in 10.0 mi NE 5.8 mph - N/A   Clear
12:55 PM 55.6 °F - 35.6 °F 47% 30.40 in 10.0 mi East 9.2 mph - N/A   Clear
1:15 PM 55.9 °F - 34.7 °F 45% 30.40 in 2.0 mi ENE 6.9 mph - N/A   Haze
1:34 PM 55.9 °F - 35.4 °F 46% 30.40 in 10.0 mi East 6.9 mph - N/A   Clear
1:55 PM 57.0 °F - 35.1 °F 44% 30.40 in 10.0 mi ENE 4.6 mph - N/A   Clear
2:15 PM 56.5 °F - 34.2 °F 43% 30.39 in 4.0 mi Calm Calm - N/A   Haze
2:34 PM 58.5 °F - 34.9 °F 41% 30.40 in 10.0 mi NNE 4.6 mph - N/A   Clear
2:55 PM 58.5 °F - 33.1 °F 38% 30.38 in 10.0 mi NE 4.6 mph - N/A   Clear
3:14 PM 58.5 °F - 32.9 °F 38% 30.36 in 10.0 mi North 4.6 mph - N/A   Clear
3:35 PM 58.5 °F - 32.4 °F 37% 30.36 in 10.0 mi ENE 6.9 mph - N/A   Clear
3:55 PM 58.5 °F - 32.5 °F 38% 30.35 in 4.0 mi East 6.9 mph - N/A   Haze
4:14 PM 58.5 °F - 32.5 °F 38% 30.34 in 10.0 mi ENE 5.8 mph - N/A   Clear
4:35 PM 58.5 °F - 31.1 °F 35% 30.34 in 10.0 mi Calm Calm - N/A   Clear
4:54 PM 58.5 °F - 32.0 °F 37% 30.33 in 10.0 mi ENE 4.6 mph - N/A   Clear
5:15 PM 58.5 °F - 34.0 °F 40% 30.33 in 10.0 mi NE 4.6 mph - N/A   Clear
5:35 PM 57.6 °F - 33.6 °F 41% 30.33 in 10.0 mi ENE 5.8 mph - N/A   Clear
5:55 PM 56.8 °F - 33.4 °F 41% 30.33 in 10.0 mi ENE 4.6 mph - N/A   Clear
6:15 PM 56.1 °F - 34.5 °F 44% 30.33 in 10.0 mi ENE 5.8 mph - N/A   Clear
6:34 PM 55.8 °F - 36.0 °F 47% 30.33 in 10.0 mi ENE 4.6 mph - N/A   Clear
6:55 PM 53.6 °F - 36.7 °F 53% 30.33 in 10.0 mi ENE 4.6 mph - N/A   Clear
7:15 PM 48.4 °F - 35.8 °F 62% 30.32 in 10.0 mi ENE 5.8 mph - N/A   Clear
7:35 PM 48.4 °F - 36.5 °F 64% 30.32 in 10.0 mi East 6.9 mph - N/A   Clear
7:55 PM 48.4 °F - 36.7 °F 64% 30.31 in 10.0 mi East 6.9 mph - N/A   Clear
8:14 PM 46.4 °F - 36.0 °F 67% 30.31 in 10.0 mi Calm Calm - N/A   Clear
8:35 PM 44.1 °F - 35.6 °F 72% 30.30 in 10.0 mi Calm Calm - N/A   Clear
8:54 PM 41.0 °F - 35.4 °F 81% 30.31 in 10.0 mi Calm Calm - N/A   Clear
9:15 PM 41.7 °F 38.0 °F 36.1 °F 81% 30.31 in 10.0 mi East 5.8 mph - N/A   Clear
9:35 PM 42.8 °F 38.6 °F 36.9 °F 80% 30.31 in 10.0 mi East 6.9 mph - N/A   Clear
9:54 PM 41.5 °F 38.6 °F 36.7 °F 83% 30.31 in 10.0 mi ESE 4.6 mph - N/A   Clear
10:15 PM 41.0 °F 39.0 °F 37.2 °F 86% 30.31 in 10.0 mi East 3.5 mph - N/A   Clear
10:34 PM 39.2 °F - 36.7 °F 91% 30.31 in 10.0 mi Calm Calm - N/A   Clear
10:55 PM 37.2 °F - 35.4 °F 93% 30.31 in 10.0 mi Calm Calm - N/A   Clear
11:15 PM 35.8 °F - 35.1 °F 97% 30.31 in 10.0 mi Calm Calm - N/A   Clear
11:34 PM 34.7 °F - 34.3 °F 99% 30.31 in 10.0 mi Calm Calm - N/A   Clear
11:55 PM 34.9 °F - 34.9 °F 100% 30.29 in 10.0 mi Calm Calm - N/A   Clear